Powrót do katalogu

HULIANWANG DIGUI-118

AktywnyŁącznośćPO
NORAD 66957·PAYLOAD·🇨🇳 China

Wystrzelony Dec 8, 2025 z Taiyuan Satellite Launch Center

Loading…

Następne Przeloty (najbliższe 24 godziny)

TLE

ŚwieżeSource: Space-Track

Epoka: Sep 14, 2026, 09:49 UTC

1 66957U 25287E   26257.40956379 -.00000061  00000-0 -17552-3 0  9994
2 66957  86.4877 252.1567 0001525  84.3914 275.7394 13.24407415 37159

Śledź HULIANWANG DIGUI-118 w czasie rzeczywistym z AllMySat

Download on the App Store